Weather History for EGLF - January, 2014

Change the Weather History Date:

Thursday, January 2, 2014

  Actual Average (EGLL) Record (EGLL)
Temperature  
Mean Temperature 46 °F -  
Max Temperature 50 °F 45 °F 52 °F (2013)
Min Temperature 42 °F 35 °F 23 °F (1997)
Degree Days  
Heating Degree Days 19    
Moisture  
Dew Point 43 °F    
Average Humidity 82    
Maximum Humidity 93    
Minimum Humidity 65    
Precipitation  
Precipitation 0.01 in - - ()
Sea Level Pressure  
Sea Level Pressure 29.38 in    
Wind  
Wind Speed 12 mph ()    
Max Wind Speed 18 mph    
Max Gust Speed 28 mph    
Visibility 9.8 miles    
Events      
Averages and records for this station are not official NWS values.
T = Trace of Precipitation, MM = Missing Value Source: Averaged Metar Reports

Daily Weather History Graph

Daily Weather History Graph

Search for Another Location

Airport or City:

Trip Planner

Search our weather history database for the weather conditions in past years. The results will help you decide how hot, cold, wet, or windy it might be!

Date:

Astronomy

Jan. 02, 2014 Rise Set
Actual Time 8:07 AM GMT 4:06 PM GMT
Civil Twilight 7:27 AM GMT 4:46 PM GMT
Nautical Twilight 6:45 AM GMT 5:29 PM GMT
Astronomical Twilight 6:04 AM GMT 6:09 PM GMT
Moon 8:24 AM GMT (1/2) 6:00 PM GMT (1/2)
Length of Visible Light 9h 18m
Length of Day
7h 59m
New Moon, 2% of the Moon is Illuminated
Jan 2
New Moon
Jan 8
First Quarter
Jan 16
Full
Jan 24
Last Quarter
Jan 30
New

Hourly Weather History & Observations

Time (GMT) Temp. Windchill Dew Point Humidity Pressure Visibility Wind Dir Wind Speed Gust Speed Precip Events Conditions
12:00 AM 49 °F - 46 °F 84% 29.09 in 2 mi SW 16.1 mph - -   Scattered Clouds
1:00 AM 49 °F - 46 °F 83% 29.09 in 7 mi SSW 13.8 mph - -   Partly Cloudy
2:00 AM 47 °F - 44 °F 84% 29.10 in 17 mi SSW 16.1 mph - -   Scattered Clouds
3:00 AM 47 °F - 45 °F 90% 29.12 in 11 mi SW 15.0 mph - -   Scattered Clouds
4:00 AM 46 °F - 43 °F 86% 29.16 in 28 mi West 10.4 mph - -   Partly Cloudy
5:00 AM 44 °F - 41 °F 85% 29.21 in 22 mi West 12.7 mph - -   Scattered Clouds
6:00 AM 44 °F - 41 °F 86% 29.26 in 22 mi West 11.5 mph - -   Mostly Cloudy
6:50 AM 44.6 °F 38.1 °F 41.0 °F 87% 29.30 in - WSW 13.8 mph - N/A   Clear
7:00 AM 44 °F - 40 °F 83% 29.31 in 28 mi WSW 10.4 mph - -   Scattered Clouds
7:20 AM 42.8 °F 36.2 °F 41.0 °F 93% 29.33 in - WSW 12.7 mph - N/A   Clear
7:50 AM 42.8 °F 36.6 °F 39.2 °F 87% 29.33 in - WSW 11.5 mph - N/A   Clear
8:00 AM 42 °F - 40 °F 88% 29.35 in 28 mi WSW 10.4 mph - -  
8:20 AM 42.8 °F 37.0 °F 39.2 °F 87% 29.36 in - SW 10.4 mph - N/A   Clear
8:50 AM 42.8 °F 37.0 °F 39.2 °F 87% 29.39 in - SW 10.4 mph - N/A   Clear
9:00 AM 43 °F - 40 °F 85% 29.39 in 31 mi SW 10.4 mph - -  
9:20 AM 44.6 °F 38.4 °F 41.0 °F 87% 29.39 in - WSW 12.7 mph - N/A   Clear
9:50 AM 44.6 °F 38.4 °F 41.0 °F 87% 29.42 in - WSW 12.7 mph - N/A   Clear
10:00 AM 45 °F - 40 °F 78% 29.42 in 25 mi WSW 12.7 mph - -  
10:20 AM 46.4 °F 41.1 °F 41.0 °F 81% 29.42 in - SW 11.5 mph - N/A   Clear
10:50 AM 46.4 °F 40.4 °F 41.0 °F 81% 29.42 in - SW 13.8 mph - N/A   Clear
11:00 AM 47 °F - 41 °F 73% 29.44 in 19 mi SW 13.8 mph - -  
11:20 AM 48.2 °F - 41.0 °F 76% 29.44 in 6.2 mi SW 13.8 mph - N/A   Partly Cloudy
11:50 AM 48.2 °F - 42.8 °F 82% 29.44 in 6.2 mi SW 16.1 mph - N/A   Partly Cloudy
12:00 PM 49 °F - 42 °F 69% 29.44 in 17 mi WSW 16.1 mph - -  
12:20 PM 48.2 °F - 42.8 °F 82% 29.44 in 6.2 mi SW 17.3 mph - N/A   Partly Cloudy
12:50 PM 50.0 °F - 42.8 °F 76% 29.44 in 6.2 mi SW 13.8 mph - N/A   Partly Cloudy
1:00 PM 50 °F - 42 °F 67% 29.45 in 17 mi SW 12.7 mph - -   Scattered Clouds
1:20 PM 48.2 °F - 41.0 °F 76% 29.44 in 6.2 mi SW 12.7 mph - N/A   Scattered Clouds
1:50 PM 50.0 °F - 42.8 °F 76% 29.44 in 6.2 mi SW 15.0 mph - N/A   Scattered Clouds
2:00 PM 50 °F - 42 °F 65% 29.46 in 15 mi SW 15.0 mph - -   Scattered Clouds
2:20 PM 50.0 °F - 41.0 °F 71% 29.44 in 6.2 mi SSW 12.7 mph - N/A   Partly Cloudy
2:50 PM 50.0 °F - 42.8 °F 76% 29.44 in 6.2 mi SSW 13.8 mph - N/A   Scattered Clouds
3:00 PM 49 °F - 43 °F 73% 29.47 in 14 mi SW 13.8 mph - -   Scattered Clouds
3:20 PM 48.2 °F - 44.6 °F 87% 29.47 in 6.2 mi SSW 9.2 mph - N/A   Scattered Clouds
3:50 PM 48.2 °F - 42.8 °F 82% 29.44 in 6.2 mi SSW 11.5 mph - N/A   Partly Cloudy
4:00 PM 48 °F - 43 °F 76% 29.47 in 19 mi SSW 13.8 mph - -   Mostly Cloudy
4:20 PM 46.4 °F 40.7 °F 42.8 °F 87% 29.44 in 6.2 mi SSW 12.7 mph - N/A   Partly Cloudy
4:50 PM 46.4 °F 41.5 °F 42.8 °F 87% 29.44 in 6.2 mi South 10.4 mph - N/A   Partly Cloudy
5:00 PM 46 °F - 43 °F 85% 29.47 in 16 mi SSW 9.2 mph - -   Mostly Cloudy
5:20 PM 48.2 °F - 44.6 °F 87% 29.44 in 6.2 mi SSW 15.0 mph - N/A   Partly Cloudy
5:50 PM 46.4 °F 40.7 °F 42.8 °F 87% 29.44 in 6.2 mi SSW 12.7 mph - N/A   Partly Cloudy
6:00 PM 47 °F - 43 °F 82% 29.46 in 17 mi SSW 11.5 mph - -   Scattered Clouds
6:20 PM 48.2 °F - 44.6 °F 87% 29.44 in 6.2 mi South 11.5 mph - N/A   Partly Cloudy
6:50 PM 48.2 °F - 44.6 °F 87% 29.44 in 6.2 mi SSW 11.5 mph - N/A   Partly Cloudy
7:00 PM 48 °F - 44 °F 83% 29.44 in 15 mi SSW 11.5 mph - -   Scattered Clouds
7:20 PM 48.2 °F - 44.6 °F 87% 29.42 in - South 13.8 mph - N/A   Scattered Clouds
7:50 PM 50.0 °F - 44.6 °F 82% 29.42 in 6.2 mi South 16.1 mph 27.6 mph N/A   Scattered Clouds
8:00 PM 49 °F - 45 °F 81% 29.42 in 13 mi SSW 17.3 mph - -   Scattered Clouds
8:20 PM 50.0 °F - 44.6 °F 82% 29.42 in 6.2 mi South 13.8 mph - N/A   Scattered Clouds
9:00 PM 50 °F - 46 °F 79% 29.40 in 15 mi South 16.1 mph - -   Partly Cloudy
10:00 PM 50 °F - 46 °F 81% 29.37 in 14 mi South 17.3 mph - -   Mostly Cloudy
11:00 PM 49 °F - 47 °F 91% 29.33 in 2 mi South 18.4 mph - -   Scattered Clouds